Regional Weather Roundup
Issued by NWS Newport/Morehead, NC

Current Version | Previous Version | Graphics & Text | Print | Product List | Glossary Off
Versions: 1 2 3 4 5 6 7 8 9 10 11 12 13 14 15 16 17 18 19 20 21 22 23 24 25 26 27 28 29 30 31 32 33 34 35 36 37 38 39 40 41 42 43 44 45 46 47 48 49 50
818 ASUS42 KMHX 291013 RWRMHX WEATHER ROUNDUP FOR EASTERN NORTH CAROLINA NATIONAL WEATHER SERVICE NEWPORT/MOREHEAD CITY NC 600 AM EDT WED MAR 29 2017 NOTE: "FAIR" INDICATES FEW OR NO CLOUDS BELOW 12,000 FEET WITH NO SIGNIFICANT WEATHER AND/OR OBSTRUCTIONS TO VISIBILITY NCZ015>017-031-032-045>047-102-103-291100- NORTH COAST CITY SKY/WX TMP DP RH WIND PRES REMARKS EDENTON NOT AVBL ELIZABETH CITY CLEAR 57 55 93 N8 29.97R KITTY HAWK NOT AVBL MANTEO CLOUDY 54 54 99 NE17 29.97R FOG $$ NCZ045>047-081-094-103-104-291100- CENTRAL COAST CITY SKY/WX TMP DP RH WIND PRES REMARKS FRISCO PTCLDY 60 57 89 N7 29.94R $$ NCZ095-097-098-100-101-291100- SOUTHERN COAST CITY SKY/WX TMP DP RH WIND PRES REMARKS BEAUFORT MOCLDY 61 61 100 N3 29.94R CEDAR ISLAND NOT AVBL JACKSONVILLE MOCLDY 56 56 100 CALM 29.94S PINEY ISLAND MOSUNNY N/A N/A N/A NW6 29.94R WILMINGTON CLEAR 60 59 96 N3 29.95R $$ NCZ011>013-027>030-043-044-078>080-089-090>093-098-291100- COASTAL PLAIN CITY SKY/WX TMP DP RH WIND PRES REMARKS AHOSKIE NOT AVBL CLINTON CLEAR 57 55 93 CALM 29.97R ELIZABETHTOWN MOCLDY 59 54 84 CALM 29.97R GOLDSBORO CLEAR 59 58 96 N5 29.95R GREENVILLE CLEAR 54 54 100 CALM 29.98R FOG HAVELOCK MOCLDY 59 57 93 CALM 29.95R KENANSVILLE PTCLDY 57 54 88 N3 29.96R KINSTON CLEAR 56 56 99 N3 29.97R NEW BERN CLEAR 56 56 100 CALM 29.96R RICHLANDS CLOUDY 56 55 97 CALM 29.96R ROCKY MOUNT CLEAR 54 53 97 N5 29.98R WASHINGTON CLEAR 54 54 99 CALM 29.96R FOG WHITEVILLE CLOUDY 60 55 82 CALM 29.96R $$ AMZ130-135-150-152-154-156-158-170-250-252-270-ANZ085-086-088-633-658-670-291100- MARINE OBSERVATIONS STATION/POSITION TIME TEMP WIND PRES WAVE SWELL AIR SEA DIR/SP/G HT/PER HT/PER (UTC) (F) (DEG/KT/KT) (MB) (FT/S) (FT/S) CHESAPEAKE LIGHT NOT AVBL 64 E VA BEACH 0950 47 48 10/ 19/ 23 1013.7 4/ 9 3/ 9 DUCK 0942 52 48 20/ 15/ 16 1014.0 2 E DUCK 0930 49 N/A 3/10 2/11 OREGON INLET 0948 10/ 8/ 15 N/A 13E OREGON INLT 0948 51 N/A 4/10 3/10 HATTERAS CG 0942 60 63 340/ 8/ 10 1013.7 DIAMOND BUOY 0950 64 73 360/ 17/ 21 1013.6 4/10 3/10 CAPE LOOKOUT 0900 64 300/ 6/ 6 1013.0 BEAUFORT LAB 0942 62 62 310/ 2/ 3 1012.9 30 SE NEW RVR IN 0908 64 340/ 8/ 12 1013.4 30 SE NEW RVR IN 0943 64 N/A 5/10 2/11 27 SE WRIGHTSVLE 0908 66 70 350/ 10/ 16 1012.3 5 SE WRIGHTSVLE 0908 60 59 350/ 6/ 10 1013.5 225 S CAPE HAT 0950 71 72 240/ 17/ 21 1013.2 6/10 5/10 41 SE CHARLESTON 0950 68 71 270/ 14/ 16 1013.2 5/10 3/10 $$

USA.gov is the U.S. government's official web portal to all federal, state and local government web resources and services.